Weather Roundup
Issued by NWS Corpus Christi, TX

Home | Current Version | Previous Version | Text Only | Print | Product List | Glossary On
Versions: 1 2 3 4 5 6 7 8 9 10 11 12 13 14 15 16 17 18 19 20 21 22 23 24 25 26 27 28 29 30 31 32 33 34 35 36 37 38 39 40 41 42 43 44 45 46 47 48 49 50
927
ASUS44 KCRP 132211
HRRCRP

SOUTH TEXAS REGIONAL WEATHER ROUNDUP
NATIONAL WEATHER SERVICE CORPUS CHRISTI TX
400 PM CST FRI DEC 13 2019


TXZ229>244-132300-
...CORPUS CHRISTI AREA OBSERVATIONS...

CITY           SKY/WX    TMP DP  RH WIND       PRES   REMARKS
CORPUS CHRISTI MOSUNNY   82  45  27 NW15      29.85S
NAS CORPUS CHR MOSUNNY   78  55  44 W8        29.85S
ROCKPORT       SUNNY     78  52  40 W6        29.83S
KINGSVILLE NAS SUNNY     84  46  26 W9G21     29.85S
ALICE          SUNNY     84  40  21 W14       29.86R
$$

...VICTORIA AREA OBSERVATIONS...

CITY           SKY/WX    TMP DP  RH WIND       PRES   REMARKS
PORT LAVACA    SUNNY     80  49  34 W16       29.82F
VICTORIA       SUNNY     79  47  32 W13       29.82F
BEEVILLE       NOT AVBL
PLEASANTON     SUNNY     80  38  22 W15       29.84F
SAN ANTONIO    PTSUNNY   80  37  21 W12       29.82F
$$

...LAREDO AREA OBSERVATIONS...

CITY           SKY/WX    TMP DP  RH WIND       PRES   REMARKS
LAREDO         SUNNY     84  35  17 W6        29.87F
COTULLA        SUNNY     82  33  17 NW9       29.85F
DEL RIO        SUNNY     86  34  15 W15       29.85S
MCALLEN        SUNNY     84  43  23 W7        29.86F
HEBBRONVILLE   SUNNY     80  31  16 CALM      29.89S
$$

...OTHER TEXAS OBSERVATIONS...

CITY           SKY/WX    TMP DP  RH WIND       PRES   REMARKS
BROWNSVILLE    FAIR      83  52  34 SW5       29.85F
HOUSTON        MOSUNNY   73  50  44 W8        29.78F
COL. STATION   SUNNY     73  43  33 W9        29.80S
AUSTIN         PTSUNNY   78  38  23 W9        29.80F
TEMPLE         SUNNY     70  41  34 NW8       29.83R
WACO           SUNNY     68  46  45 VRB6      29.82S
FORT WORTH     MOSUNNY   60  44  55 N6        29.82R
WICHITA FALLS  SUNNY     62  40  44 CALM      29.82R
LUBBOCK        MOSUNNY   68  26  20 NW20G33   29.85S
EL PASO        MOSUNNY   68  36  30 W17       30.06F
$$

...MARINE OBSERVATIONS...

STATION/POSITION TIME  SKY/WX   TEMP    WIND        PRES    VSBY  WAVE   SWELL
                                AIR SEA DIR/SP/G                  HT/PER HT/PER
                 (UTC)          (F)     (DEG/KT/KT) (MB)    (MI)  (FT/S) (FT/S)
PORT ARANSAS     2200            65 64  170/ 10/ 10 1010.9F
BUOY 90 E PORT A 2150            69 73  260/ 16/ 21 1010.3R         4/ 5
BUOY 45 SE BAFFI 2200            69     250/  8/ 10 1011.3
BUOY 200 E PT IS 2150            73 78  280/ 16/ 19 1011.5R         5/ 6   2/ 8
BUOY 15 E GALVES 2150                   230/ 14/ 16 1010.2S         2/ 5
$$




USA.gov is the U.S. government's official web portal to all federal, state and local government web resources and services.